sat.trackr.live / text

‹ back to catalog

STARLINK-37834

NORAD 69428 · 2026-126J

PAYLOAD ACTIVE UNKNOWN

§ Identity

Operator
Country
US
Launch date
2026-06-07
Launch site
AFWTR
Launch vehicle
Mass (kg)
RCS (m²)

Purposes: comms

External: N2YO · Heavens-Above · Gunter

§ Orbital elements

Epoch: 2026-09-19T22:03:49.413024Z

Period
93.90 min
Inclination
97.2887°
Eccentricity
0.0001498
Mean motion
15.33466335 rev/d
Perigee alt
464.5 km
Apogee alt
466.5 km
Semi-major
6,843.6 km
B*
5.4678e-4
RAAN
124.1391°
Arg perigee
85.8762°
Mean anomaly
274.2652°
Rev number
1,743

§ Raw data

STARLINK-378341 69428U 26126J   26262.91932191  .00017630  00000+0  54678-3 0  99982 69428  97.2887 124.1391 0001498  85.8762 274.2652 15.33466335 17433

JSON: /api/v1/satellites/69428 · /tle

For live sub-satellite position, see the globe view (requires WebGL).

§ Visibility from observer

Set your observer location to see the next 7 days of passes ≥ 10°. The values pass through the URL so the page stays shareable.

No JS? Fill the form by hand. The geolocation button needs JavaScript.